Погода в Ратгаме

Шри-Ланка     6°02′20″N   80°12′57″E
темп.,
°C
ветер,
м/с
пор.,
м/с
влажн.,
%
обл.,
%
осадки,
мм/ч
давл.,
гПа
погр.,
м
12 августа, пт
пт1223:30+26з379166 0.4 1010349
02:30+26зсз479036 1.3 1009384
05:30+26зсз499123 2.3 1008521
08:30+27зсз510852 2.1 1010714
11:30+28зсз6107871 3.3 1010901
14:30+28зсз697919 0.3 1007945
17:30+27з4885100 0.6 1008717
20:30+26зсз3690100 0.6 1009298
13 августа, сб
сб1323:30+26зсз3690100 1.3 1010365
02:30+26з369042 0.4 1008346
05:30+26зсз488698 0.9 1008418
08:30+27з5884100 0.3 1010714
11:30+28зсз6977100 0.6 1009926
14:30+28зсз697652 0.0 1007956
17:30+27зсз598498 0.1 1007766
20:30+26зсз5987100 0.1 1009643
14 августа, вс
вс1423:30+26зсз4888100 0.1 1009560
02:30+26з5888100 0.1 1007607
05:30+26з5986100 0.4 1008609
08:30+27з5982100 0.3 1010771
11:30+28з6107772 0.4 10101048
14:30+28з6977100 0.1 10081029
17:30+27з6983100 0.3 1008832
20:30+26з5886100 0.1 1010593
15 августа, пн
пн1523:30+26з588898 0.2 1009543
02:30+26з5887100 0.3 1008503
05:30+26з598598 0.4 1008572
08:30+27з478091 0.1 1010739
11:30+28з577595 0.2 1010897
14:30+28з5775100 0.1 1008956
17:30+27з5781100 0.4 1008644
20:30+27з5884100 0.1 1010418
16 августа, вт
вт1623:30+26зюз578599 0.3 1010462
02:30+26з588659 0.3 1009524
05:30+26з578511 0.4 1009450
08:30+27з467845 0.1 1011622
11:30+28з577422 0.1 1010854
14:30+28з5675100 0.1 1008928
17:30+27з4681100 0.1 1008609
20:30+26зюз368598 0.1 1010221